TimeCDT,TemperatureF,Dew PointF,Humidity,Sea Level PressureIn,VisibilityMPH,Wind Direction,Wind SpeedMPH,Gust SpeedMPH,PrecipitationIn,Events,Conditions,WindDirDegrees,DateUTC
12:15 AM,53.6,46.4,77,30.02,10.0,Calm,Calm,-,N/A,,Mostly Cloudy,0,2013-09-02 05:15:00
12:34 AM,55.4,46.4,72,30.02,10.0,Calm,Calm,-,N/A,,Overcast,0,2013-09-02 05:34:00
12:55 AM,55.4,46.4,72,30.02,10.0,North,3.5,-,N/A,,Overcast,10,2013-09-02 05:55:00
1:14 AM,55.4,48.2,77,30.02,10.0,Calm,Calm,-,N/A,,Overcast,0,2013-09-02 06:14:00
1:34 AM,55.4,48.2,77,30.03,10.0,Calm,Calm,-,N/A,,Overcast,0,2013-09-02 06:34:00
1:55 AM,55.4,48.2,77,30.03,10.0,Calm,Calm,-,N/A,,Overcast,0,2013-09-02 06:55:00
2:14 AM,55.4,48.2,77,30.03,10.0,Calm,Calm,-,N/A,,Overcast,0,2013-09-02 07:14:00
2:34 AM,55.4,48.2,77,30.03,10.0,Calm,Calm,-,N/A,,Mostly Cloudy,0,2013-09-02 07:34:00
2:54 AM,53.6,48.2,82,30.03,10.0,NE,4.6,-,N/A,,Overcast,50,2013-09-02 07:54:00
3:14 AM,53.6,48.2,82,30.04,10.0,Calm,Calm,-,N/A,,Overcast,0,2013-09-02 08:14:00
3:35 AM,53.6,46.4,77,30.04,10.0,Calm,Calm,-,N/A,,Overcast,0,2013-09-02 08:35:00
3:54 AM,53.6,46.4,77,30.05,10.0,North,3.5,-,N/A,,Overcast,360,2013-09-02 08:54:00
4:15 AM,53.6,46.4,77,30.05,10.0,Calm,Calm,-,N/A,,Overcast,0,2013-09-02 09:15:00
4:34 AM,53.6,44.6,72,30.05,10.0,Calm,Calm,-,N/A,,Overcast,0,2013-09-02 09:34:00
4:55 AM,53.6,44.6,72,30.06,10.0,Calm,Calm,-,N/A,,Overcast,0,2013-09-02 09:55:00
5:14 AM,53.6,44.6,72,30.06,10.0,Calm,Calm,-,N/A,,Overcast,0,2013-09-02 10:14:00
5:34 AM,53.6,46.4,77,30.06,10.0,Calm,Calm,-,N/A,,Overcast,0,2013-09-02 10:34:00
5:54 AM,53.6,48.2,82,30.07,10.0,Calm,Calm,-,N/A,,Overcast,0,2013-09-02 10:54:00
6:14 AM,53.6,48.2,82,30.07,10.0,Calm,Calm,-,N/A,,Overcast,0,2013-09-02 11:14:00
6:35 AM,53.6,48.2,82,30.08,5.0,Calm,Calm,-,N/A,Rain,Rain,0,2013-09-02 11:35:00
6:54 AM,51.8,48.2,88,30.09,5.0,Calm,Calm,-,N/A,,Light Drizzle,0,2013-09-02 11:54:00
7:14 AM,51.8,50.0,94,30.09,10.0,Calm,Calm,-,N/A,,Overcast,0,2013-09-02 12:14:00
7:35 AM,50.0,46.4,87,30.10,10.0,Calm,Calm,-,N/A,,Mostly Cloudy,0,2013-09-02 12:35:00
7:54 AM,51.8,50.0,94,30.10,10.0,Calm,Calm,-,N/A,,Overcast,0,2013-09-02 12:54:00
8:15 AM,51.8,46.4,82,30.11,7.0,Calm,Calm,-,N/A,,Overcast,0,2013-09-02 13:15:00
8:34 AM,51.8,48.2,88,30.11,7.0,Calm,Calm,-,N/A,,Overcast,0,2013-09-02 13:34:00
8:54 AM,53.6,50.0,88,30.11,7.0,Calm,Calm,-,N/A,,Overcast,0,2013-09-02 13:54:00
9:14 AM,53.6,48.2,82,30.11,10.0,North,4.6,-,N/A,,Overcast,350,2013-09-02 14:14:00
9:34 AM,53.6,46.4,77,30.12,10.0,Calm,Calm,-,N/A,,Overcast,0,2013-09-02 14:34:00
9:55 AM,53.6,48.2,82,30.12,4.0,Calm,Calm,-,N/A,,Haze,0,2013-09-02 14:55:00
10:14 AM,55.4,48.2,77,30.13,10.0,North,6.9,-,N/A,,Overcast,350,2013-09-02 15:14:00
10:34 AM,55.4,46.4,72,30.13,10.0,NNW,10.4,-,N/A,,Overcast,330,2013-09-02 15:34:00
10:54 AM,55.4,44.6,67,30.13,10.0,North,3.5,-,N/A,,Overcast,360,2013-09-02 15:54:00
11:14 AM,55.4,46.4,72,30.13,10.0,Calm,Calm,-,N/A,,Overcast,0,2013-09-02 16:14:00
11:34 AM,57.2,46.4,67,30.12,10.0,NNW,6.9,-,N/A,,Overcast,340,2013-09-02 16:34:00
11:54 AM,57.2,46.4,67,30.13,10.0,NNW,10.4,-,N/A,,Overcast,340,2013-09-02 16:54:00
12:15 PM,59.0,44.6,59,30.13,10.0,NNW,8.1,-,N/A,,Overcast,330,2013-09-02 17:15:00
12:34 PM,59.0,44.6,59,30.12,10.0,NW,9.2,-,N/A,,Overcast,320,2013-09-02 17:34:00
12:54 PM,59.0,46.4,63,30.12,10.0,NNW,8.1,-,N/A,,Overcast,330,2013-09-02 17:54:00
1:14 PM,60.8,46.4,59,30.11,10.0,Calm,Calm,-,N/A,,Overcast,0,2013-09-02 18:14:00
1:34 PM,60.8,48.2,63,30.10,10.0,WNW,4.6,-,N/A,,Overcast,300,2013-09-02 18:34:00
1:54 PM,60.8,46.4,59,30.10,10.0,North,4.6,-,N/A,,Mostly Cloudy,350,2013-09-02 18:54:00
2:14 PM,62.6,48.2,59,30.10,10.0,Calm,Calm,-,N/A,,Scattered Clouds,0,2013-09-02 19:14:00
2:34 PM,64.4,48.2,56,30.09,10.0,North,3.5,-,N/A,,Scattered Clouds,10,2013-09-02 19:34:00
2:54 PM,64.4,48.2,56,30.09,10.0,North,4.6,-,N/A,,Clear,10,2013-09-02 19:54:00
3:14 PM,64.4,46.4,52,30.09,10.0,Calm,Calm,-,N/A,,Scattered Clouds,0,2013-09-02 20:14:00
3:34 PM,64.4,46.4,52,30.08,10.0,NNW,4.6,-,N/A,,Scattered Clouds,340,2013-09-02 20:34:00
3:54 PM,64.4,46.4,52,30.07,10.0,Calm,Calm,-,N/A,,Scattered Clouds,0,2013-09-02 20:54:00
4:15 PM,64.4,46.4,52,30.07,10.0,North,4.6,-,N/A,,Clear,360,2013-09-02 21:15:00
4:34 PM,64.4,46.4,52,30.07,10.0,Calm,Calm,-,N/A,,Clear,0,2013-09-02 21:34:00
4:54 PM,64.4,46.4,52,30.06,10.0,Calm,Calm,-,N/A,,Clear,0,2013-09-02 21:54:00
5:14 PM,64.4,46.4,52,30.06,10.0,NW,3.5,-,N/A,,Clear,320,2013-09-02 22:14:00
5:34 PM,64.4,46.4,52,30.06,10.0,Calm,Calm,-,N/A,,Clear,0,2013-09-02 22:34:00
5:54 PM,64.4,46.4,52,30.06,10.0,NE,3.5,-,N/A,,Clear,50,2013-09-02 22:54:00
6:14 PM,64.4,46.4,52,30.07,10.0,NNW,3.5,-,N/A,,Clear,330,2013-09-02 23:14:00
6:34 PM,64.4,48.2,56,30.07,10.0,Calm,Calm,-,N/A,,Clear,0,2013-09-02 23:34:00
6:54 PM,64.4,48.2,56,30.07,10.0,Calm,Calm,-,N/A,,Clear,0,2013-09-02 23:54:00
7:14 PM,64.4,48.2,56,30.07,10.0,Calm,Calm,-,N/A,,Clear,0,2013-09-03 00:14:00
7:34 PM,60.8,46.4,59,30.06,10.0,Calm,Calm,-,N/A,,Clear,0,2013-09-03 00:34:00
7:54 PM,57.2,46.4,67,30.06,10.0,Calm,Calm,-,N/A,,Clear,0,2013-09-03 00:54:00
8:14 PM,55.4,46.4,72,30.06,10.0,Calm,Calm,-,N/A,,Clear,0,2013-09-03 01:14:00
8:34 PM,53.6,46.4,77,30.06,10.0,Calm,Calm,-,N/A,,Clear,0,2013-09-03 01:34:00
8:54 PM,51.8,46.4,82,30.06,10.0,Calm,Calm,-,N/A,,Clear,0,2013-09-03 01:54:00
9:14 PM,50.0,46.4,87,30.07,10.0,Calm,Calm,-,N/A,,Clear,0,2013-09-03 02:14:00
9:35 PM,50.0,46.4,87,30.07,10.0,Calm,Calm,-,N/A,,Clear,0,2013-09-03 02:35:00
9:54 PM,50.0,46.4,87,30.07,10.0,Calm,Calm,-,N/A,,Clear,0,2013-09-03 02:54:00
10:15 PM,48.2,44.6,87,30.07,7.0,Calm,Calm,-,N/A,,Clear,0,2013-09-03 03:15:00
10:34 PM,48.2,46.4,93,30.07,10.0,Calm,Calm,-,N/A,,Clear,0,2013-09-03 03:34:00
10:54 PM,46.4,44.6,93,30.07,10.0,Calm,Calm,-,N/A,,Clear,0,2013-09-03 03:54:00
11:15 PM,46.4,44.6,93,30.07,1.2,Calm,Calm,-,N/A,,Mist,0,2013-09-03 04:15:00
11:34 PM,44.6,44.6,100,30.07,4.0,Calm,Calm,-,N/A,,Clear,0,2013-09-03 04:34:00
11:55 PM,44.6,44.6,100,30.07,10.0,Calm,Calm,-,N/A,,Clear,0,2013-09-03 04:55:00